Weather WX

World > North America > United States > Minnesota

Minnetrista, Minnesota Regional Weather

Lat: 44.94N, Lon: 93.72W
Wx Zone: MNZ060
Warning FLW WEATHER ALERT - (More Info. Click Here) Warning
Feedback

Minnetrista, MN Regional Weather

Expires:201906171700;;634942
ASUS43 KMPX 171610
RWRMN 
WEATHER ROUNDUP FOR MINNESOTA
NATIONAL WEATHER SERVICE TWIN CITIES/CHANHASSEN MN
1100 AM CDT MON JUN 17 2019


NOTE: "FAIR" INDICATES FEW OR NO CLOUDS BELOW 12,000 FEET WITH NO
SIGNIFICANT WEATHER AND/OR OBSTRUCTIONS TO VISIBILITY. N/A MEANS
CURRENT SKY AND/OR WEATHER CONDITIONS ARE NOT AVAILABLE.


MNZ060>063-068>070-171700-
   Twin Cities Metro   
  
CITY           SKY/WX    TMP DP  RH WIND       PRES   REMARKS
TWIN CITIES    CLOUDY    66  59  78 W5        30.01R                  
ST PAUL        CLOUDY    65  59  81 CALM      30.01R                  
CRYSTAL        CLOUDY    66  63  90 VRB3      29.99R                  
BLAINE         CLOUDY    64  63  94 W5        30.01R FOG              
EDEN PRAIRIE   CLOUDY    67  60  78 CALM      30.00R                  
SOUTH ST PAUL  FAIR      64  60  86 CALM      30.01R                  
LAKE ELMO        N/A     64  61  88 W5        30.02S                  
$$

SKY/WX - Weather  TMP - Temperature  DP - Dew Point  RH - Relative Humidity
WIND - Wind Direction/Speed PRES - Barometric Pressure VSB - Visibility
WCI - Wind Chill Index E13G22 Wind - East Wind 13 mph/Gusts of 22 mph